Wind_Speed
34 32 31 31 31 30 29 26 24 22 21 19 17 17 17 16 16 16 15 14 13 13 12 11 11 11 11 10 11 11 11 11 12 13 14 14 15 15 15 15 15 15 16 16
35 33 32 33 32 31 31 29 27 25 23 21 19 18 17 17 17 17 17 16 14 14 13 12 12 12 11 11 12 12 12 13 13 14 15 15 16 16 15 15 15 16 16 16
33 33 33 34 33 32 32 31 29 27 25 22 21 20 19 18 18 18 18 17 16 15 14 14 13 13 12 12 13 13 13 14 15 15 16 16 17 17 17 16 16 16 16 17
32 33 34 33 32 32 32 31 30 28 26 24 23 22 21 20 19 19 19 18 17 17 16 16 15 15 14 14 14 14 15 15 16 16 16 17 18 18 18 18 18 18 17 17
32 31 33 34 32 31 31 31 30 29 27 26 24 24 23 22 21 20 20 19 19 18 18 17 17 16 16 17 16 16 16 16 17 17 17 18 19 19 18 18 18 18 17 17
33 30 30 32 31 30 31 32 31 30 28 27 26 25 23 22 22 21 21 21 20 20 19 18 18 18 18 18 18 18 18 18 17 18 18 19 19 19 19 19 18 18 18 19
33 32 31 31 30 29 31 31 30 30 29 28 28 26 24 23 23 23 23 23 22 22 21 20 20 19 19 19 20 20 19 19 19 19 19 19 19 20 20 20 19 19 20 20
34 32 31 31 30 30 30 30 29 29 29 29 28 27 26 25 25 24 24 24 23 23 22 21 21 21 21 21 21 21 20 20 20 19 19 19 20 20 20 20 20 20 21 20
36 35 33 32 31 30 30 29 29 29 28 28 28 28 27 26 26 26 25 24 24 24 23 23 23 22 23 22 21 21 21 21 20 20 20 20 21 21 22 21 21 21 21 22
36 36 35 33 32 31 30 29 28 28 28 28 28 28 28 27 27 26 26 25 25 25 24 24 24 24 23 23 22 21 21 21 21 21 21 21 22 23 23 23 22 22 22 23
36 36 35 34 33 32 31 29 28 28 28 28 28 28 28 28 27 26 26 26 26 26 26 26 25 25 24 23 23 22 22 22 22 22 22 23 24 24 24 24 23 24 24 24
35 35 35 35 33 32 31 30 29 28 28 28 29 29 29 29 28 28 27 27 27 28 28 27 26 26 25 24 24 24 23 23 23 23 23 24 25 25 24 25 25 25 25 26
35 35 35 34 34 33 32 31 30 30 30 29 29 29 29 29 30 30 29 29 29 29 29 28 28 28 27 26 26 26 26 25 25 25 25 25 25 25 25 25 26 27 27 27
36 35 34 34 33 33 31 30 30 31 31 31 31 31 30 31 31 31 31 31 31 30 30 29 29 28 28 28 27 27 27 27 26 26 26 26 26 26 26 27 27 28 27 27
36 35 35 34 33 32 32 31 30 31 32 32 32 32 32 32 32 32 32 32 31 31 30 30 30 30 30 30 29 28 28 28 27 27 27 27 27 27 26 27 27 27 26 26
33 34 35 34 34 34 33 32 31 31 31 32 32 32 33 32 32 32 32 32 32 31 31 31 31 31 31 30 29 29 29 28 28 28 28 28 27 27 27 27 27 26 26 26
31 32 33 34 34 34 34 33 32 31 30 31 31 32 32 32 32 31 31 32 31 31 30 30 31 31 31 31 31 30 29 29 29 29 29 28 28 28 28 27 27 26 26 27
30 30 32 32 33 33 33 33 32 31 31 31 31 32 32 32 32 31 31 32 32 32 31 30 31 31 31 31 32 32 30 29 28 29 28 28 27 27 27 27 27 27 26 26
30 30 30 30 31 32 32 32 32 31 31 32 32 32 32 32 33 33 32 32 32 32 31 31 31 31 30 31 31 30 29 29 28 28 27 27 27 27 27 27 27 27 27 27
29 29 29 30 30 31 31 31 31 31 31 31 31 32 32 31 30 30 30 30 30 30 30 30 30 31 31 30 29 29 29 28 27 27 28 28 27 27 27 27 27 26 26 26
28 28 28 29 29 30 29 29 29 30 30 30 31 31 31 30 29 29 29 29 29 29 29 29 29 29 28 28 28 29 28 27 27 27 27 27 27 27 27 27 26 25 26 26
27 27 28 28 29 29 29 29 29 29 29 29 29 29 30 29 28 28 28 28 28 28 28 28 27 27 27 27 27 27 27 27 26 26 26 27 26 26 26 26 26 26 26 27
26 26 27 27 27 28 28 28 27 28 28 28 28 28 28 28 28 27 27 27 27 27 27 26 26 26 26 26 26 26 26 25 25 26 26 26 26 27 27 26 26 27 27 28
25 25 26 26 26 27 27 27 27 28 28 28 28 28 28 27 27 27 26 26 25 25 25 25 24 25 25 25 25 24 24 24 25 26 26 26 26 26 26 26 26 27 27 27
22 23 24 25 25 25 26 27 26 26 26 26 26 25 25 25 25 25 25 25 24 23 23 23 23 23 23 23 23 23 23 23 24 24 25 25 25 25 25 25 26 26 27 27
20 21 21 22 23 24 25 25 26 26 25 25 25 24 24 24 25 25 24 24 24 23 23 22 22 22 22 22 22 22 22 23 24 24 24 24 24 25 24 25 25 26 26 27
18 19 20 21 22 23 24 24 25 24 24 24 24 24 24 24 23 23 23 23 22 21 21 20 20 20 20 21 21 21 21 22 23 23 24 24 24 24 24 25 25 26 26 26
Wind_Direction
222 225 229 229 229 230 230 231 233 236 236 240 242 241 245 249 253 258 263 270 276 281 283 290 298 307 313 314 316 318 319 322 324 325 324 323 323 321 319 317 316 317 319 316
223 225 228 229 229 230 230 232 233 236 239 240 242 241 243 246 250 256 261 264 268 273 276 284 293 300 307 308 309 311 314 316 318 320 321 321 322 320 316 315 315 316 315 315
222 224 227 229 228 230 232 233 235 237 239 240 241 241 243 245 249 254 259 260 261 266 271 279 289 295 299 301 302 303 306 310 312 315 316 317 319 319 316 314 313 314 313 312
221 225 227 229 229 230 232 233 235 236 237 240 240 242 243 245 247 251 255 259 261 264 268 275 284 289 292 293 295 298 300 305 308 311 312 314 316 318 315 313 311 312 311 309
222 228 230 229 229 229 231 232 234 236 238 240 241 243 245 246 246 248 251 257 261 264 267 273 279 283 287 288 289 292 296 302 307 309 309 311 314 315 315 312 310 310 310 310
222 222 228 230 229 229 231 233 233 236 237 238 239 241 245 246 245 246 250 255 260 264 268 272 276 281 283 284 285 288 292 297 302 305 306 309 312 313 313 312 309 308 308 308
222 224 227 229 228 229 231 233 234 236 236 236 237 240 243 243 244 246 249 253 258 262 266 270 274 281 282 282 283 284 287 292 297 300 303 306 309 311 311 310 308 307 308 308
221 224 228 228 227 229 231 233 234 234 235 236 238 239 240 242 244 247 250 253 256 260 264 267 272 277 280 281 283 284 286 291 294 297 300 302 304 307 309 309 307 305 307 309
222 224 227 229 229 230 232 233 234 234 234 235 237 238 239 241 243 246 250 253 256 259 262 265 271 276 278 279 280 281 285 289 292 294 297 298 300 302 304 305 306 307 307 308
225 226 228 230 229 230 231 232 233 234 234 235 237 238 239 241 243 246 251 252 255 258 261 265 271 274 276 276 277 279 282 285 289 290 293 295 297 298 299 302 305 307 307 306
226 227 228 228 229 230 231 231 232 231 231 233 235 237 239 241 244 247 250 251 253 257 261 266 269 272 275 276 277 279 280 284 287 288 290 293 296 297 297 300 302 302 303 305
225 226 227 228 228 228 229 230 231 231 232 234 236 238 240 242 245 248 251 252 255 258 261 264 267 270 273 275 277 278 280 281 283 284 287 290 292 295 296 297 299 300 300 302
225 226 227 227 227 227 229 232 232 232 234 236 237 239 242 244 246 249 252 255 256 258 260 263 265 267 270 273 274 278 281 280 281 284 286 290 292 293 295 296 297 298 298 299
224 225 226 226 228 229 231 232 233 234 236 238 239 240 243 246 248 250 252 254 256 258 261 263 266 267 269 271 273 275 278 281 281 283 287 289 291 292 293 295 296 297 297 298
224 224 225 226 227 228 230 233 235 236 237 239 240 242 245 247 248 250 251 254 256 257 260 263 264 267 268 270 271 273 276 279 283 285 287 290 292 291 293 295 296 296 295 297
224 224 225 226 227 229 231 233 236 238 239 241 243 244 245 246 248 249 251 253 254 257 259 262 264 266 268 270 271 272 274 277 280 283 286 289 290 291 293 294 295 296 296 296
223 224 226 227 229 230 233 235 237 238 239 241 242 243 244 245 247 249 251 252 254 257 259 262 263 264 267 270 272 273 274 276 279 282 284 286 289 291 292 292 293 295 295 294
225 226 227 228 230 232 234 236 238 238 240 241 242 243 243 246 248 251 252 252 254 256 259 262 264 265 267 270 272 274 274 276 279 281 283 285 288 290 290 291 291 293 295 295
226 228 229 231 232 233 235 237 237 238 241 242 243 244 245 247 249 250 252 254 256 258 260 262 263 266 268 270 273 273 273 275 277 279 283 285 287 288 289 290 290 290 292 294
226 228 231 231 232 233 234 235 236 238 240 242 243 244 245 245 247 250 251 253 255 258 261 262 264 266 268 269 269 271 273 273 275 277 280 283 285 288 289 290 291 290 292 295
225 227 229 230 231 231 232 234 235 237 239 241 242 244 244 245 246 248 250 252 255 258 261 263 264 266 266 266 268 270 272 272 274 277 278 280 283 286 288 289 290 291 292 294
226 227 228 229 230 230 233 235 236 238 238 239 241 243 242 243 246 248 250 253 256 258 260 262 263 264 264 266 268 269 272 273 274 275 277 279 282 285 287 288 288 290 291 291
226 227 228 229 229 230 232 233 235 235 235 238 240 242 243 245 246 247 249 251 253 256 258 260 262 263 265 267 268 270 271 272 273 275 276 279 282 285 285 286 287 288 290 291
222 224 226 227 228 229 231 232 233 234 235 237 239 241 244 245 245 247 249 249 251 254 257 259 261 263 265 267 268 270 270 271 274 275 276 279 282 284 285 286 287 287 289 290
222 224 224 224 225 228 230 231 231 234 235 237 239 241 243 245 245 246 247 247 249 253 255 258 261 264 266 267 268 269 270 272 273 274 276 279 282 283 284 285 286 288 289 290
223 224 224 223 223 224 227 229 232 232 234 235 237 239 243 244 244 245 248 248 250 253 256 260 262 263 265 267 268 270 272 273 274 277 279 280 282 283 284 286 287 288 290 291
221 221 223 222 222 225 228 229 230 231 232 233 235 238 240 241 243 245 247 249 251 254 257 261 263 265 266 268 269 271 272 274 276 278 279 280 281 283 284 287 289 289 290 291
Height
5865 5869 5874 5878 5882 5886 5890 5895 5900 5903 5905 5907 5908 5909 5910 5911 5912 5912 5913 5912 5912 5912 5911 5910 5910 5908 5907 5906 5904 5903 5901 5899 5897 5895 5893 5891 5889 5887 5885 5882 5880 5878 5876 5874
5857 5862 5867 5871 5875 5880 5884 5888 5892 5896 5899 5901 5902 5904 5906 5907 5907 5908 5909 5909 5909 5909 5908 5908 5907 5906 5905 5903 5902 5901 5899 5897 5895 5893 5891 5889 5886 5884 5882 5879 5877 5875 5873 5871
5851 5856 5859 5863 5869 5873 5878 5882 5886 5890 5894 5895 5897 5899 5901 5902 5903 5904 5904 5905 5905 5905 5905 5905 5904 5903 5902 5901 5899 5898 5896 5894 5892 5890 5888 5886 5883 5881 5878 5876 5874 5872 5870 5867
5845 5849 5852 5860 5863 5867 5871 5875 5879 5883 5886 5889 5892 5894 5895 5897 5898 5899 5900 5901 5901 5901 5901 5901 5901 5900 5899 5898 5896 5895 5893 5891 5889 5887 5884 5882 5880 5877 5875 5872 5870 5868 5866 5864
5838 5842 5846 5851 5856 5860 5864 5868 5873 5876 5880 5883 5885 5887 5889 5891 5893 5894 5895 5896 5897 5897 5897 5897 5897 5896 5895 5894 5893 5891 5889 5888 5886 5883 5881 5879 5876 5874 5871 5869 5867 5865 5862 5860
5831 5837 5841 5846 5849 5853 5858 5861 5865 5869 5873 5876 5879 5882 5884 5886 5887 5889 5890 5891 5892 5892 5893 5893 5892 5892 5891 5890 5888 5887 5885 5884 5882 5880 5877 5875 5873 5870 5868 5865 5863 5861 5859 5857
5824 5829 5834 5838 5842 5846 5851 5855 5858 5862 5865 5869 5872 5876 5878 5879 5881 5883 5884 5885 5886 5887 5887 5888 5887 5887 5886 5885 5884 5882 5881 5879 5877 5875 5873 5871 5869 5866 5864 5861 5859 5857 5855 5853
5817 5822 5828 5830 5835 5840 5843 5847 5851 5854 5858 5862 5865 5868 5871 5873 5875 5877 5878 5879 5880 5881 5882 5882 5882 5882 5881 5880 5879 5877 5876 5874 5872 5871 5869 5867 5865 5862 5860 5857 5855 5853 5850 5848
5810 5816 5819 5823 5827 5832 5836 5840 5844 5847 5851 5855 5858 5861 5864 5866 5868 5870 5872 5873 5874 5875 5876 5876 5876 5875 5875 5874 5873 5872 5871 5869 5867 5866 5864 5862 5860 5858 5856 5853 5851 5848 5846 5843
5802 5806 5811 5816 5820 5824 5828 5832 5836 5841 5844 5848 5851 5854 5857 5860 5862 5863 5865 5867 5868 5869 5869 5870 5869 5869 5868 5867 5867 5866 5865 5864 5862 5861 5859 5857 5855 5853 5850 5848 5846 5843 5841 5838
5793 5798 5803 5808 5813 5817 5821 5825 5829 5834 5837 5841 5844 5847 5850 5853 5855 5856 5858 5860 5861 5862 5862 5863 5863 5862 5862 5861 5861 5860 5859 5858 5857 5855 5853 5851 5849 5847 5844 5843 5840 5838 5836 5833
5786 5791 5796 5800 5805 5810 5814 5818 5822 5826 5831 5834 5837 5840 5843 5845 5848 5849 5851 5853 5854 5855 5855 5856 5856 5856 5855 5855 5854 5854 5852 5851 5850 5848 5846 5844 5842 5841 5838 5836 5834 5832 5829 5827
5779 5783 5788 5793 5798 5802 5806 5810 5814 5819 5823 5826 5829 5832 5835 5838 5840 5842 5844 5845 5846 5847 5848 5848 5849 5849 5849 5848 5848 5847 5846 5844 5842 5841 5840 5838 5836 5834 5832 5830 5828 5825 5823 5820
5771 5776 5781 5786 5790 5795 5798 5802 5807 5811 5815 5818 5822 5824 5827 5829 5832 5834 5835 5837 5838 5839 5840 5840 5841 5841 5841 5841 5840 5840 5839 5837 5835 5834 5833 5831 5829 5827 5825 5823 5821 5818 5815 5813
5763 5768 5773 5778 5782 5787 5791 5795 5799 5803 5807 5810 5813 5816 5819 5821 5823 5825 5827 5828 5830 5831 5832 5833 5833 5833 5833 5833 5833 5832 5831 5830 5829 5827 5826 5824 5821 5819 5817 5815 5813 5810 5807 5805
5756 5760 5765 5770 5774 5779 5783 5787 5792 5795 5799 5802 5804 5807 5810 5812 5814 5816 5818 5820 5821 5822 5824 5824 5825 5825 5825 5825 5824 5823 5823 5822 5821 5820 5818 5816 5814 5812 5810 5808 5805 5803 5801 5799
5748 5753 5757 5762 5766 5771 5775 5779 5783 5786 5790 5793 5796 5798 5801 5803 5805 5807 5809 5811 5813 5814 5815 5816 5816 5816 5816 5816 5816 5815 5814 5814 5813 5812 5810 5809 5807 5804 5802 5800 5798 5796 5794 5791
5741 5745 5749 5754 5759 5763 5767 5771 5775 5778 5781 5784 5787 5789 5792 5794 5797 5799 5801 5802 5804 5805 5806 5807 5807 5808 5808 5807 5807 5807 5806 5805 5804 5803 5802 5800 5799 5797 5795 5793 5791 5788 5786 5784
5734 5738 5742 5746 5751 5755 5759 5763 5766 5770 5773 5776 5778 5781 5783 5786 5788 5790 5792 5794 5795 5796 5797 5798 5798 5799 5798 5798 5798 5797 5797 5796 5796 5795 5794 5792 5791 5789 5787 5785 5783 5781 5779 5776
5727 5731 5735 5739 5743 5747 5751 5754 5758 5761 5764 5767 5770 5773 5775 5777 5779 5781 5783 5785 5786 5787 5788 5789 5789 5790 5790 5789 5789 5789 5789 5788 5787 5787 5786 5784 5783 5781 5779 5778 5776 5773 5771 5769
5720 5724 5728 5732 5736 5739 5743 5746 5750 5753 5756 5759 5762 5764 5766 5769 5771 5773 5774 5776 5777 5778 5779 5779 5780 5781 5781 5781 5781 5780 5780 5780 5779 5778 5778 5776 5775 5774 5772 5770 5768 5766 5764 5762
5714 5717 5721 5725 5728 5732 5735 5738 5742 5745 5748 5750 5753 5755 5758 5760 5763 5764 5766 5768 5769 5770 5770 5771 5771 5772 5772 5772 5772 5772 5772 5771 5771 5770 5770 5768 5767 5766 5764 5763 5761 5759 5757 5755
5707 5711 5714 5718 5721 5725 5728 5731 5734 5737 5740 5743 5745 5748 5750 5752 5754 5756 5758 5760 5760 5761 5762 5763 5763 5764 5764 5764 5764 5764 5763 5763 5763 5762 5761 5761 5760 5758 5757 5755 5754 5752 5750 5747
5701 5705 5708 5711 5714 5718 5721 5724 5727 5730 5732 5735 5738 5740 5742 5744 5746 5748 5750 5751 5752 5754 5754 5755 5756 5756 5756 5756 5756 5756 5755 5755 5755 5754 5753 5753 5752 5750 5749 5748 5746 5744 5742 5740
5695 5698 5702 5705 5708 5711 5714 5717 5720 5722 5725 5728 5730 5733 5735 5737 5739 5741 5742 5744 5745 5746 5747 5747 5748 5748 5749 5749 5748 5748 5748 5748 5747 5746 5746 5745 5744 5743 5741 5740 5738 5736 5734 5732
5690 5693 5696 5699 5702 5705 5708 5711 5713 5716 5719 5721 5724 5726 5728 5730 5732 5734 5735 5737 5738 5739 5740 5740 5740 5741 5741 5741 5741 5741 5741 5741 5740 5739 5739 5738 5737 5735 5734 5732 5730 5728 5726 5724
5686 5689 5691 5694 5697 5699 5702 5705 5707 5710 5712 5715 5717 5720 5722 5724 5725 5727 5729 5730 5731 5732 5733 5734 5734 5734 5735 5734 5734 5734 5734 5734 5733 5733 5732 5731 5729 5728 5726 5725 5723 5721 5718 5716